C/2017 M4 ( ATLAS )

Japanese version
Home page
Updated on September 17, 2019

---------------------------------------------------------------------

* Profile

Discovery Date June 21, 2017
Magnitude 18.3 mag
Discoverer Asteroid Terrestrial-impact Last Alert System (ATLAS) Team

* Pictures

* Orbital Elements

Epoch 2019 Feb. 6.0 TT = JDT 2458520.5                                          
T 2019 Jan. 18.18709 TT                                 Williams                
q   3.2518028            (2000.0)            P               Q                  
z  -0.0007178      Peri.  167.62104     -0.34653881     -0.32822152             
 +/-0.0000003      Node    65.86769     -0.92164395     +0.29349814             
e   1.0023341      Incl.  105.65761     -0.17459463     -0.89784713             
H                                                                               
From 1539 observations 2017 June 16-2019 Aug. 5, mean residual 0".5.            

* Finding Charts

* Magnitudes Graph

        m1 = 6.0 + 5 log d + 10.0 log r

---------------------------------------------------------------------

The orbital elements are published on M.P.E.C. 2019-Q13.
The charts are made with StellaNavigator Ver.10 (AstroArts).
The magnitudes graphs are made with Comet for Windows.

---------------------------------------------------------------------

Copyright(C) Seiichi Yoshida (comet@aerith.net). All rights reserved.